Location: Góry Miechowskie
(50.3599°N, 20.1803°E)
Time: 20:44:44
(UTC+00:00)

Cosmos 1461 - Pass Details

Date: 15 September 2024
Orbit: 488 x 565 km, 65.0° (Epoch: 14 October)

Event Time Altitude Azimuth Distance (km) Brightness Sun altitude
Exits shadow 23:53:46 12° 33° (NNE) 1,553 5.9 -34.1°
Drops below altitude 10° 23:54:06 10° 34° (NE) 1,689 6.1 -34.1°
Enters shadow 00:54:18 -62° 233° (SW) 11,902 9.6 -28.9°
